Location: *
(46.1200°N, 11.2700°E)
Time: 19:10:48
(UTC+00:00)

SL-4 R/B - Pass Details

Date: 02 March 2021
Orbit: 428 x 663 km, 51.6° (Epoch: 19 April)

Event Time Altitude Azimuth Distance (km) Brightness Sun altitude
Rises 18:18:02 0° 290° (WNW) 2,493 7.0 -13.8°
Reaches altitude 10° 18:20:21 10° 300° (WNW) 1,587 5.4 -14.2°
Maximum altitude 18:23:37 34° 7° (N) 747 2.7 -14.8°
Enters shadow 18:25:02 24° 53° (NE) 955 2.8 -15.0°
